DW2819 Weather Reports


Display with metric or nautical units.
time (UTC)temp
F
wind
direction
speed
MPH
gust
MPH
rain 1hr
in
rain 24hr
in
rain mn
in
humidity
%
barometer
mb
20200708104552 64 331 0.0 1.0 0.06 0.05 0.06 74 1004.3
20200708104058 65 151 0.0 6.0 0.00 0.01 0.00 69 1003.9
20200708103552 66 162 0.0 6.0 0.00 0.01 0.00 64 1003.9
20200708103051 66 0 1.0 5.0 0.00 0.01 0.00 64 1003.9
20200708102552 66 0 0.0 5.0 0.00 0.01 0.00 64 1003.8
20200708102052 67 114 0.0 1.0 0.00 0.01 0.00 62 1003.8
20200708101550 67 41 0.0 10.0 0.00 0.01 0.00 62 1003.8
20200708101051 66 155 1.0 10.0 0.00 0.01 0.00 64 1003.9
20200708100548 66 147 1.0 5.0 0.00 0.01 0.00 64 1003.9
20200708100048 65 48 0.0 7.0 0.00 0.01 0.00 66 1003.8
20200708095548 66 68 0.0 9.0 0.00 0.01 0.00 63 1003.9
20200708095047 67 192 1.0 9.0 0.00 0.01 0.00 66 1003.8
20200708094548 65 217 0.0 4.0 0.00 0.01 0.00 68 1003.9
20200708094044 66 18 0.0 6.0 0.00 0.01 0.00 71 1003.8
20200708093545 65 37 0.0 6.0 0.00 0.01 0.00 68 1003.8
20200708093039 65 120 1.0 5.0 0.00 0.01 0.00 68 1003.9
20200708092538 64 0 0.0 4.0 0.00 0.01 0.00 72 1003.9
20200708092032 64 20 0.0 3.0 0.00 0.01 0.00 70 1003.9
20200708091534 64 55 0.0 3.0 0.00 0.01 0.00 75 1003.9
20200708091036 64 23 0.0 3.0 0.00 0.01 0.00 73 1003.9
20200708090532 63 207 0.0 3.0 0.00 0.01 0.00 73 1003.9
20200708090034 63 37 0.0 5.0 0.00 0.01 0.00 73 1003.9
20200708085531 63 179 0.0 5.0 0.00 0.01 0.00 71 1003.9
20200708085034 64 110 0.0 2.0 0.00 0.01 0.00 71 1003.9
20200708084530 64 34 0.0 6.0 0.00 0.01 0.00 70 1003.8
20200708084032 64 92 0.0 6.0 0.00 0.01 0.00 69 1003.8
20200708083532 64 20 0.0 5.0 0.00 0.01 0.00 69 1003.7
20200708083032 64 333 0.0 5.0 0.00 0.01 0.00 72 1003.8
20200708082531 64 109 0.0 4.0 0.00 0.01 0.00 70 1003.9
20200708082033 64 30 0.0 5.0 0.00 0.01 0.00 67 1003.8
20200708081531 66 172 0.0 12.0 0.00 0.01 0.00 66 1003.8
20200708081033 67 145 1.0 12.0 0.00 0.01 0.00 67 1003.7
20200708080528 66 34 0.0 4.0 0.00 0.01 0.00 65 1003.7
20200708080026 66 118 0.0 5.0 0.00 0.01 0.00 68 1003.7
20200708075530 66 121 0.0 5.0 0.00 0.01 0.00 67 1003.7
20200708075023 66 17 1.0 5.0 0.00 0.01 0.00 67 1003.6
20200708074527 65 195 0.0 5.0 0.00 0.01 0.00 68 1003.6
20200708074022 64 87 0.0 2.0 0.00 0.01 0.00 73 1003.6
20200708073528 64 80 0.0 5.0 0.00 0.01 0.00 71 1003.6
20200708073018 65 87 0.0 5.0 0.00 0.01 0.00 70 1003.6
20200708072518 65 14 1.0 5.0 0.00 0.01 0.00 74 1003.6
20200708072019 65 155 0.0 7.0 0.00 0.01 0.00 73 1003.6
20200708071521 65 155 0.0 7.0 0.00 0.01 0.00 73 1003.5
20200708071004 65 85 1.0 6.0 0.00 0.01 0.00 75 1003.6
20200708070509 65 173 0.0 4.0 0.00 0.01 0.00 77 1003.6
20200708070011 64 358 0.0 4.0 0.00 0.01 0.00 77 1003.5
20200708065506 64 213 0.0 4.0 0.00 0.01 0.00 76 1003.6
20200708065013 64 138 0.0 4.0 0.00 0.01 0.00 78 1003.5
20200708064504 63 69 0.0 4.0 0.00 0.01 0.00 80 1003.5
20200708063954 63 345 1.0 6.0 0.00 0.01 0.00 80 1003.5
20200708063455 63 13 0.0 6.0 0.00 0.01 0.00 78 1003.5
20200708062951 64 124 0.0 5.0 0.00 0.02 0.00 82 1003.4
20200708062448 63 149 0.0 7.0 0.00 0.02 0.00 82 1003.4
20200708061947 62 109 0.0 7.0 0.00 0.02 0.00 81 1003.4
20200708061446 62 16 0.0 5.0 0.00 0.03 0.00 82 1003.5
20200708060945 62 63 0.0 5.0 0.00 0.05 0.00 84 1003.4
20200708060446 62 157 0.0 3.0 0.00 0.05 0.00 86 1003.5
20200708055946 61 193 0.0 4.0 0.00 0.05 0.00 87 1003.5
20200708055443 61 176 0.0 4.0 0.00 0.05 0.00 88 1003.5
20200708054948 60 190 0.0 2.0 0.00 0.05 0.00 90 1003.5
20200708054439 60 145 0.0 5.0 0.00 0.05 0.00 90 1003.5
20200708053936 59 137 1.0 5.0 0.00 0.05 0.00 91 1003.6
20200708053434 59 128 0.0 4.0 0.00 0.05 0.00 93 1003.7
20200708052938 58 125 0.0 4.0 0.00 0.05 0.00 93 1003.7
20200708052436 58 183 0.0 3.0 0.00 0.05 0.00 93 1003.7
20200708051935 58 162 0.0 3.0 0.00 0.05 0.00 94 1003.8
20200708051431 57 162 0.0 0.0 0.00 0.05 0.00 94 1003.7
20200708050932 57 161 0.0 3.0 0.00 0.05 0.00 94 1003.8
20200708050426 58 169 0.0 4.0 0.00 0.05 0.00 94 1003.8
20200708045920 58 168 0.0 4.0 0.00 0.05 0.00 93 1003.8
20200708045415 57 138 0.0 3.0 0.00 0.05 0.00 93 1003.8
20200708044914 57 169 0.0 0.0 0.00 0.05 0.00 93 1003.8
20200708044414 56 169 0.0 1.0 0.00 0.05 0.00 93 1003.8
20200708043908 56 169 0.0 2.0 0.00 0.05 0.00 94 1003.8
20200708043407 56 172 0.0 2.0 0.00 0.05 0.00 93 1003.7
20200708042904 55 90 0.0 1.0 0.00 0.05 0.00 94 1003.8
20200708042407 55 90 0.0 0.0 0.00 0.05 0.00 94 1003.8
20200708041902 55 90 0.0 0.0 0.00 0.05 0.00 94 1003.8
20200708041402 54 90 0.0 0.0 0.00 0.05 0.00 94 1003.9
20200708040903 54 1 0.0 0.0 0.00 0.05 0.00 94 1003.9
20200708040402 53 1 0.0 0.0 0.00 0.06 0.00 94 1003.9
20200708035901 53 1 0.0 0.0 0.00 0.06 0.00 94 1003.9
20200708035406 52 1 0.0 0.0 0.00 0.06 0.00 94 1003.9
20200708034903 51 1 0.0 0.0 0.00 0.06 0.00 94 1003.8
20200708034402 51 1 0.0 0.0 0.00 0.06 0.00 94 1003.8
20200708033904 50 1 0.0 0.0 0.00 0.06 0.00 94 1003.8
20200708033401 50 1 0.0 0.0 0.00 0.06 0.00 94 1003.8
20200708032904 49 1 0.0 0.0 0.00 0.06 0.00 94 1003.9
20200708032403 49 1 0.0 0.0 0.00 0.06 0.00 94 1003.9
20200708031902 49 1 0.0 0.0 0.00 0.06 0.00 94 1003.9
20200708031401 49 1 0.0 0.0 0.00 0.06 0.00 94 1003.9
20200708030902 48 1 0.0 0.0 0.00 0.06 0.00 94 1003.9
20200708030402 48 1 0.0 0.0 0.00 0.06 0.00 95 1004.0
20200708025902 48 1 0.0 0.0 0.00 0.06 0.00 94 1004.0
20200708025402 48 1 0.0 0.0 0.00 0.06 0.00 94 1004.1
20200708024901 48 1 0.0 0.0 0.00 0.06 0.00 95 1004.0
20200708024406 47 1 0.0 0.0 0.00 0.06 0.00 95 1004.1
20200708023902 47 1 0.0 0.0 0.00 0.06 0.00 95 1004.1
20200708023403 47 1 0.0 0.0 0.00 0.06 0.00 95 1004.1
20200708022902 47 1 0.0 0.0 0.00 0.06 0.00 95 1004.1
20200708022404 47 1 0.0 0.0 0.00 0.06 0.00 95 1004.1
20200708021903 47 1 0.0 0.0 0.00 0.06 0.00 95 1004.1
20200708021401 47 1 0.0 0.0 0.00 0.06 0.00 95 1004.1
20200708020904 47 1 0.0 0.0 0.00 0.06 0.00 95 1004.1
20200708020400 47 1 0.0 0.0 0.00 0.06 0.00 94 1004.1
20200708015900 47 1 0.0 0.0 0.00 0.06 0.00 94 1004.2
20200708015400 47 1 0.0 0.0 0.00 0.06 0.00 94 1004.1
20200708014859 47 1 0.0 0.0 0.00 0.06 0.00 94 1004.1
20200708014357 47 1 0.0 0.0 0.00 0.06 0.00 94 1004.1
20200708013900 47 1 0.0 0.0 0.00 0.06 0.00 94 1004.1
20200708013356 47 1 0.0 0.0 0.00 0.06 0.00 94 1004.1
20200708012856 47 1 0.0 0.0 0.00 0.06 0.00 94 1004.1
20200708012354 47 1 0.0 0.0 0.00 0.06 0.00 94 1004.1
20200708011846 47 1 0.0 0.0 0.00 0.06 0.00 94 1004.2
20200708011347 47 1 0.0 0.0 0.00 0.06 0.00 94 1004.1
20200708010843 48 1 0.0 0.0 0.00 0.06 0.00 94 1004.2
20200708010343 48 1 0.0 0.0 0.00 0.06 0.00 94 1004.2
20200708005842 48 1 0.0 0.0 0.00 0.06 0.00 94 1004.2
20200708005342 48 1 0.0 0.0 0.00 0.06 0.00 94 1004.2
20200708004839 48 1 0.0 0.0 0.00 0.06 0.00 94 1004.2
20200708004337 48 1 0.0 0.0 0.00 0.06 0.00 94 1004.3
20200708003838 48 1 0.0 0.0 0.00 0.06 0.00 94 1004.4
20200708003339 48 1 0.0 0.0 0.00 0.06 0.00 94 1004.4
20200708002834 48 1 0.0 0.0 0.00 0.06 0.00 94 1004.4
20200708002338 49 1 0.0 0.0 0.00 0.06 0.00 94 1004.5
20200708001832 49 1 0.0 0.0 0.00 0.06 0.00 94 1004.5
20200708001330 49 1 0.0 0.0 0.00 0.06 0.00 94 1004.4
20200708000832 49 1 0.0 0.0 0.00 0.06 0.00 94 1004.5
20200708000332 49 1 0.0 0.0 0.00 0.06 0.00 94 1004.6
20200707235832 49 1 0.0 0.0 0.00 0.06 0.00 94 1004.5
20200707235332 49 1 0.0 0.0 0.00 0.06 0.00 94 1004.5
20200707234832 49 1 0.0 0.0 0.00 0.06 0.00 94 1004.6
20200707234334 49 1 0.0 0.0 0.00 0.06 0.00 94 1004.6
20200707233830 50 1 0.0 0.0 0.00 0.06 0.00 94 1004.6
20200707233332 50 1 0.0 0.0 0.00 0.06 0.00 94 1004.6
20200707232831 50 1 0.0 0.0 0.00 0.06 0.00 94 1004.6
20200707232332 50 1 0.0 0.0 0.00 0.06 0.00 94 1004.7
20200707231829 50 1 0.0 0.0 0.00 0.06 0.00 94 1004.6
20200707231333 50 1 0.0 0.0 0.00 0.06 0.00 94 1004.7
20200707230830 50 1 0.0 0.0 0.00 0.06 0.00 94 1004.6
20200707230328 50 1 0.0 0.0 0.00 0.06 0.00 94 1004.6
20200707225825 50 1 0.0 0.0 0.00 0.06 0.00 94 1004.5
20200707225327 50 1 0.0 0.0 0.00 0.06 0.00 94 1004.5
20200707224819 50 1 0.0 0.0 0.00 0.06 0.00 94 1004.5
20200707224319 50 1 0.0 0.0 0.00 0.06 0.00 94 1004.6
20200707223814 50 1 0.0 0.0 0.00 0.06 0.00 94 1004.6
20200707223314 50 1 0.0 0.0 0.00 0.06 0.00 94 1004.5
20200707222815 50 1 0.0 0.0 0.00 0.06 0.00 94 1004.4
20200707222312 50 1 0.0 0.0 0.00 0.06 0.00 94 1004.4
20200707221811 50 1 0.0 0.0 0.00 0.06 0.00 94 1004.4
20200707221310 50 1 0.0 0.0 0.00 0.06 0.00 94 1004.4
20200707220808 50 1 0.0 0.0 0.00 0.06 0.00 94 1004.4
20200707220303 50 1 0.0 0.0 0.00 0.06 0.00 94 1004.3
20200707215806 50 1 0.0 0.0 0.00 0.06 0.00 94 1004.3
20200707215302 50 1 0.0 0.0 0.00 0.06 0.00 94 1004.3
20200707214806 50 1 0.0 0.0 0.00 0.06 0.00 94 1004.3
20200707214304 51 1 0.0 0.0 0.00 0.06 0.00 94 1004.3
20200707213804 51 1 0.0 0.0 0.00 0.06 0.00 94 1004.3
20200707213304 51 1 0.0 0.0 0.00 0.06 0.00 94 1004.4
20200707212803 51 1 0.0 0.0 0.00 0.06 0.00 94 1004.3
20200707212303 51 1 0.0 0.0 0.00 0.06 0.00 94 1004.2
20200707211803 51 1 0.0 0.0 0.00 0.06 0.00 94 1004.4
20200707211301 51 1 0.0 0.0 0.00 0.06 0.00 94 1004.5
20200707210810 52 1 0.0 0.0 0.00 0.06 0.00 94 1004.4
20200707210259 52 1 0.0 0.0 0.00 0.06 0.00 94 1004.5
20200707205753 52 1 0.0 0.0 0.00 0.06 0.06 94 1004.5
20200707205256 52 1 0.0 0.0 0.00 0.06 0.06 94 1004.4
20200707204749 52 1 0.0 0.0 0.00 0.06 0.06 94 1004.5
20200707204246 53 1 0.0 0.0 0.00 0.06 0.06 94 1004.6
20200707203747 53 1 0.0 0.0 0.00 0.06 0.06 94 1004.6
20200707203245 53 1 0.0 0.0 0.00 0.06 0.06 94 1004.6
20200707202743 53 1 0.0 0.0 0.00 0.06 0.06 94 1004.7
20200707202243 53 1 0.0 0.0 0.00 0.06 0.06 94 1004.7
20200707201742 53 1 0.0 0.0 0.00 0.06 0.06 94 1004.7
20200707201240 53 1 0.0 0.0 0.00 0.06 0.06 94 1004.7
20200707200737 53 1 0.0 0.0 0.00 0.06 0.06 94 1004.6
20200707200236 53 1 0.0 0.0 0.00 0.06 0.06 94 1004.6
20200707195738 54 1 0.0 0.0 0.00 0.06 0.06 94 1004.6
20200707195235 54 1 0.0 0.0 0.00 0.06 0.06 94 1004.5
20200707194734 54 1 0.0 0.0 0.00 0.06 0.06 94 1004.5
20200707194231 54 1 0.0 0.0 0.00 0.06 0.06 93 1004.4
20200707193731 54 1 0.0 0.0 0.00 0.06 0.06 93 1004.4
20200707193230 54 1 0.0 0.0 0.00 0.06 0.06 93 1004.4
20200707192726 54 1 0.0 0.0 0.00 0.06 0.06 93 1004.4
20200707192226 55 1 0.0 1.0 0.00 0.06 0.06 93 1004.5
20200707191725 55 1 0.0 1.0 0.00 0.06 0.06 93 1004.4
20200707191223 55 1 0.0 0.0 0.00 0.06 0.06 93 1004.5
20200707190721 55 1 0.0 0.0 0.00 0.06 0.06 93 1004.5
20200707190219 55 1 0.0 0.0 0.00 0.06 0.06 93 1004.4
20200707185709 55 1 0.0 0.0 0.00 0.06 0.06 93 1004.4
20200707185206 55 1 0.0 0.0 0.00 0.06 0.06 93 1004.4
20200707184706 56 1 0.0 0.0 0.00 0.06 0.06 93 1004.3
20200707184205 56 1 0.0 0.0 0.00 0.06 0.06 93 1004.3
20200707183700 56 1 0.0 0.0 0.00 0.06 0.06 93 1004.3
20200707183203 56 1 0.0 0.0 0.00 0.06 0.06 93 1004.3
20200707182658 56 1 0.0 0.0 0.00 0.06 0.06 93 1004.2
20200707182159 56 1 0.0 0.0 0.00 0.06 0.06 93 1004.1
20200707181657 56 1 0.0 0.0 0.00 0.06 0.06 93 1004.1
20200707181158 57 1 0.0 0.0 0.00 0.06 0.06 93 1004.1
20200707180656 57 1 0.0 0.0 0.00 0.06 0.06 93 1004.1
20200707180157 57 1 0.0 0.0 0.00 0.06 0.06 93 1004.0
20200707175653 57 0 0.0 0.0 0.00 0.06 0.06 93 1004.0
20200707175153 57 0 0.0 0.0 0.00 0.06 0.06 93 1004.0
20200707174651 57 0 0.0 0.0 0.01 0.06 0.06 93 1004.0
20200707174152 57 0 0.0 0.0 0.01 0.06 0.06 93 1003.9
20200707173651 57 0 0.0 0.0 0.01 0.06 0.06 93 1003.9
20200707173147 57 0 0.0 0.0 0.01 0.06 0.06 93 1003.8
20200707172648 57 0 0.0 0.0 0.01 0.06 0.06 92 1003.9
20200707172146 57 0 0.0 0.0 0.01 0.06 0.06 92 1003.7
20200707171645 57 0 0.0 0.0 0.01 0.06 0.06 92 1003.7
20200707171148 57 0 0.0 0.0 0.01 0.06 0.06 92 1003.7
20200707170642 57 0 0.0 0.0 0.01 0.06 0.06 91 1003.6
20200707170140 57 0 0.0 0.0 0.01 0.06 0.06 91 1003.6
20200707165643 57 0 0.0 0.0 0.01 0.06 0.06 90 1003.7
20200707165137 57 0 0.0 0.0 0.01 0.06 0.06 89 1003.6
20200707164640 58 0 0.0 0.0 0.00 0.06 0.06 87 1003.8
20200707164133 58 0 0.0 5.0 0.00 0.06 0.06 86 1003.6
20200707163632 59 0 0.0 5.0 0.00 0.06 0.06 84 1003.5
20200707163132 59 90 0.0 0.0 0.00 0.06 0.06 83 1003.5
20200707162631 59 90 0.0 0.0 0.00 0.06 0.06 83 1003.3
20200707162134 59 90 0.0 1.0 0.00 0.06 0.06 83 1003.3
20200707161633 59 138 0.0 1.0 0.00 0.06 0.06 83 1003.2
20200707161131 59 135 0.0 4.0 0.00 0.06 0.06 83 1003.2
20200707160632 59 1 0.0 4.0 0.00 0.06 0.06 84 1003.2
20200707160128 59 300 0.0 2.0 0.00 0.06 0.06 84 1003.1
20200707155630 59 23 0.0 0.0 0.00 0.06 0.06 84 1003.2
20200707155129 59 27 0.0 0.0 0.00 0.06 0.06 84 1003.2
20200707154627 59 35 0.0 4.0 0.00 0.06 0.06 83 1003.2
20200707154125 60 34 0.0 4.0 0.00 0.06 0.06 80 1003.2
20200707153626 60 133 0.0 4.0 0.00 0.06 0.06 79 1003.0
20200707153117 60 0 0.0 1.0 0.00 0.06 0.06 80 1002.9
20200707152609 60 0 0.0 0.0 0.00 0.06 0.06 80 1002.9
20200707152106 60 0 0.0 1.0 0.00 0.06 0.06 81 1003.0
20200707151609 60 0 0.0 0.0 0.00 0.06 0.06 80 1003.0
20200707151106 60 0 0.0 0.0 0.00 0.06 0.06 80 1003.1
20200707150602 60 0 0.0 6.0 0.00 0.06 0.06 79 1003.0
20200707150055 60 0 1.0 6.0 0.00 0.06 0.06 78 1002.9
20200707145557 60 1 0.0 7.0 0.00 0.06 0.06 79 1002.9
20200707145056 60 312 1.0 7.0 0.00 0.06 0.06 78 1002.8
20200707144555 60 278 0.0 5.0 0.00 0.06 0.06 77 1002.8
20200707144053 60 41 0.0 3.0 0.00 0.06 0.06 77 1002.6
20200707143554 60 62 0.0 3.0 0.00 0.06 0.06 77 1002.5
20200707143051 61 0 0.0 3.0 0.00 0.06 0.06 76 1002.5
20200707142550 61 4 0.0 6.0 0.00 0.06 0.06 78 1002.5
20200707142049 60 127 1.0 6.0 0.00 0.06 0.06 79 1002.4
20200707141548 60 30 0.0 3.0 0.00 0.06 0.06 80 1002.3
20200707141046 60 125 0.0 1.0 0.00 0.06 0.06 81 1002.3
20200707140542 60 210 0.0 1.0 0.00 0.06 0.06 82 1002.4
20200707140042 59 159 0.0 2.0 0.00 0.06 0.06 83 1002.4
20200707135540 59 10 0.0 4.0 0.00 0.06 0.06 81 1002.4
20200707135039 59 245 0.0 4.0 0.00 0.06 0.06 81 1002.4
20200707134536 59 355 0.0 4.0 0.00 0.06 0.06 82 1002.4
20200707134038 59 47 0.0 3.0 0.00 0.06 0.06 82 1002.4
20200707133533 59 25 0.0 4.0 0.00 0.06 0.06 81 1002.4
20200707133038 59 171 0.0 4.0 0.00 0.06 0.06 80 1002.3
20200707132533 60 0 0.0 0.0 0.00 0.06 0.06 80 1002.3
20200707132032 60 171 0.0 2.0 0.00 0.06 0.06 80 1002.2
20200707131530 60 68 0.0 4.0 0.00 0.06 0.06 80 1002.2
20200707131030 60 59 0.0 4.0 0.00 0.06 0.06 78 1002.1
20200707130527 60 0 0.0 4.0 0.00 0.06 0.06 78 1002.1
20200707130024 60 90 0.0 9.0 0.00 0.06 0.06 77 1002.1
20200707125525 60 151 1.0 9.0 0.00 0.06 0.06 77 1002.0
20200707125023 61 125 0.0 5.0 0.00 0.06 0.06 78 1002.0
20200707124530 60 123 0.0 3.0 0.00 0.06 0.06 77 1001.9
20200707124022 61 123 0.0 3.0 0.00 0.06 0.06 75 1001.8
20200707123521 61 340 0.0 5.0 0.00 0.06 0.06 76 1001.8
20200707123026 61 0 0.0 5.0 0.00 0.06 0.06 75 1001.7
20200707122521 61 309 0.0 7.0 0.00 0.06 0.06 77 1001.8
20200707122022 61 38 0.0 7.0 0.00 0.06 0.06 76 1001.7
20200707121521 61 44 0.0 4.0 0.00 0.06 0.06 75 1001.6
20200707121022 61 24 0.0 4.0 0.00 0.06 0.06 73 1001.6
20200707120522 61 21 0.0 6.0 0.00 0.06 0.06 72 1001.4
20200707120023 62 0 0.0 6.0 0.00 0.06 0.06 73 1001.3
20200707115530 62 0 1.0 0.0 0.00 0.06 0.06 74 1001.3
20200707115106 61 203 0.0 10.0 0.00 0.06 0.06 74 1001.3
20200707114555 61 341 1.0 10.0 0.00 0.06 0.06 72 1001.3
20200707114053 61 343 0.0 10.0 0.00 0.06 0.06 74 1001.2
20200707113555 61 13 1.0 10.0 0.00 0.06 0.06 74 1001.2
20200707113053 60 155 0.0 6.0 0.00 0.06 0.06 76 1001.2
20200707112559 61 31 0.0 6.0 0.00 0.06 0.06 75 1001.1
20200707112101 61 152 0.0 4.0 0.00 0.06 0.06 75 1001.0
20200707111600 61 164 0.0 4.0 0.00 0.06 0.06 73 1001.1
20200707111058 62 37 0.0 5.0 0.00 0.06 0.06 72 1001.0
20200707110557 62 24 0.0 5.0 0.00 0.06 0.06 72 1001.0
20200707110049 62 14 0.0 5.0 0.00 0.06 0.06 71 1000.9
20200707105707 63 305 1.0 5.0 0.00 0.06 0.06 70 1000.8
20200707105205 63 0 0.0 7.0 0.00 0.06 0.06 68 1000.8